map of KVD home
Great Circle Mapper logo
KVD - Airport
Location
City:  Ganja, Azerbaijan
Near (Alt.):Gyandzha
Name:Ganja International Airport
ICAO / IATA:UBBG / KVD

Details
Type:Airport (Aerodrome, Airfield)
Use:Public/Civil, International (customs port of entry)
Latitude:4044'16"N (40.737678)
Longitude:4619'03"E (46.317581)
Elevation:1083 ft (330 m)
Variation:6.17E (WMM2015 magnetic declination)
0.07 annual change
Runways:1
Longest:8217 × 144 ft (2505 × 44 m), paved

Time
Time Zone:UTC+4 (DST+5)
Local Time:

Weather
METAR:UBBG 051000Z 32008KT 280V350 9999 BKN100 10/M03 Q1020 R30/CLRD70 NOSIG
TAF:UBBG 042300Z 0500/0524 30010KT 9999 SCT035 BKN050 530003 TX08/0512Z TN03/0503Z
TEMPO 0501/0506 3000 -RA BR BKN015
TEMPO 0506/0510 31010G20KT -SHRA SCT015 SCT030CB OVC050

Related Locations
Nearby:
Farthest:GMR: 11211 mi / 18043 km
Mangareva [Totegegie], Gambier Islands, PF

Find:

   beyond  
but within

Other Information
Maps:
NOTAMs:
Links:
Sources:

  
flag of Azerbaijan   

Sectional Chart

Flight Planning
at skyvector.com

Satellite Image

Google Maps Satellite View

 

Copyright © 2004-2015 Karl L. Swartz. All rights reserved.
The Great Circle Mapper name and logo are trademarks of the Great Circle Mapper.
All other trademarks mentioned herein belong to their respective owners.
Please see credits for attibutions and further copyright information.

  Follow gcmap on Facebook Follow gcmap on Twitter Follow gcmap on Google+

hCard Microformat

Geo Microformat